Flag for Switzerland Weather past 2 weeks in Ilanz, Graubünden, Switzerland

Now
62 °F

Mild.


Feels Like: 62 °F
Forecast: 51 / 67 °F
Wind: No wind

Location: Chur-Ems

Current Time: Aug 31, 2014 at 12:22:40 AM

Latest Report: Aug 30, 2014 at 11:00 PM


Visibility: N/A

Pressure: 30.07 "Hg

Humidity: 86%

Dew point: 58 °F

Location of IlanzLocation

Historic Weather in Ilanz — Graph

°F

Ilanz temperature yesterday

Maximum temperature yesterday: 73 °F (at 4:00 PM)
Minimum temperature yesterday: 60 °F (at 8:00 AM)
Average temperature yesterday: 65 °F

Past Weeks' High & Low Weather Summary

 TemperatureHumidityPressure
High74 °F (Aug 28, 4:00 PM)97% (Aug 27, 3:00 AM)30.24 "Hg (Aug 27, 3:00 AM)
Low46 °F (Aug 25, 4:00 AM)35% (Aug 17, 1:00 PM)29.76 "Hg (Aug 18, 3:00 PM)
Average60 °F74%30.01 "Hg
* Reported Aug 15 10:00 PM — Aug 30 10:00 PM, Ilanz, Weather by CustomWeather, © 2014

Note: Actual official high and low records may vary slightly from our data, if they occured in-between our weather recording intervals... More about our weather records

Advertising

Ilanz weather history for previous 24 hours

 ConditionsComfort  
Time TempWeatherWind HumidityBarometerVisibility
10:00 PM
Aug 30
65 °FMild.2 mph78%30.06 "HgN/A
9:00 PM66 °FMild.5 mph75%30.04 "HgN/A
8:00 PM67 °FFog.7 mph71%30.02 "Hg9 mi
7:00 PM68 °FMild.8 mph67%30.00 "HgN/A
6:00 PM69 °FMild.13 mph66%29.99 "HgN/A
5:00 PM71 °FPartly sunny.15 mph62%29.99 "Hg6 mi
4:00 PM73 °FMild.12 mph61%29.98 "HgN/A
3:00 PM72 °FMild.12 mph66%30.01 "HgN/A
2:00 PM71 °FPartly sunny.9 mph67%30.04 "Hg6 mi
1:00 PM68 °FMild.7 mph76%30.08 "HgN/A
12:00 PM66 °FMild.6 mph77%30.09 "HgN/A
11:00 AM63 °FLight rain. Low clouds.6 mph88%30.11 "Hg2 mi
10:00 AM63 °FMild.3 mph88%30.11 "HgN/A
9:00 AM62 °FCool.2 mph93%30.11 "HgN/A
8:00 AM60 °FFog.2 mph95%30.11 "Hg3 mi
7:00 AM61 °FCool.3 mph92%30.10 "HgN/A
6:00 AM61 °FCool.6 mph93%30.09 "HgN/A
5:00 AM61 °FLight rain. Low clouds.2 mph96%30.10 "Hg5 mi
4:00 AM61 °FCool.1 mph96%30.10 "HgN/A
3:00 AM61 °FCool.1 mph97%30.11 "HgN/A
2:00 AM61 °FLight rain. Low clouds.2 mph95%30.10 "Hg5 mi
1:00 AM61 °FCool.2 mph96%30.10 "HgN/A
12:00 AM61 °FCool.2 mph97%30.11 "HgN/A
Weather by CustomWeather, © 2014

See weather overviewHow to use our weather pages